This demonstration page uses our WeatherBlox Daily Observations layout. Learn more.

Left ArrowRight Arrow

36.19886, -115.1175

Hourly Observations for January 12, 2021

Temp ( °F °C ) Dew Point ( °F °C ) Humidity (%) Winds ( mph kmh ) Pressure ( in mb ) Visibility ( mi km ) Precip ( " mm )
12:53 am 00:53 Clear 36 2.2 13 -10.6 39 39 NW 7 11 30.35 1028 10 16.0934 0 0
1:53 am 01:53 Clear 36 2.2 11 -11.7 35 35 WNW 6 9 30.35 1028 10 16.0934 0 0
2:53 am 02:53 Clear 37 2.8 12 -11.1 36 36 WNW 6 9 30.35 1028 10 16.0934 0 0
3:53 am 03:53 Clear 36 2.2 11 -11.7 35 35 WNW 5 7 30.35 1028 10 16.0934 0 0
4:53 am 04:53 Clear 35 1.7 11 -11.7 37 37 WNW 5 7 30.37 1028 10 16.0934 0 0
5:53 am 05:53 Clear 35 1.7 13 -10.6 40 40 W 5 7 30.38 1029 10 16.0934 0 0
6:53 am 06:53 Sunny 34 1.1 13 -10.6 42 42 Calm 30.4 1029 10 16.0934 0 0
7:53 am 07:53 Sunny 36 2.2 14 -10 40 40 NW 6 9 30.43 1030 10 16.0934 0 0
8:53 am 08:53 Sunny 44 6.7 11 -11.7 26 26 Calm 30.45 1031 10 16.0934 0 0
9:53 am 09:53 Sunny 47 8.3 11 -11.7 23 23 Calm 30.44 1031 10 16.0934 0 0
10:53 am 10:53 Sunny 50 10 12 -11.1 22 22 SE 3 6 30.42 1030 10 16.0934 0 0
11:53 am 11:53 Sunny 54 12.2 11 -11.7 18 18 SE 3 6 30.4 1029 10 16.0934 0 0
12:53 pm 12:53 Sunny 55 12.8 11 -11.7 17 17 Calm 30.37 1029 10 16.0934 0 0
1:53 pm 13:53 Sunny 55 12.8 11 -11.7 17 17 Calm 30.35 1028 10 16.0934 0 0
2:53 pm 14:53 Sunny 56 13.3 11 -11.7 17 17 Calm 30.32 1027 10 16.0934 0 0
3:53 pm 15:53 Sunny 56 13.3 11 -11.7 17 17 Calm 30.33 1027 10 16.0934 0 0
4:53 pm 16:53 Clear 54 12.2 10 -12.2 17 17 Calm 30.33 1027 10 16.0934 0 0
5:53 pm 17:53 Clear 52 11.1 12 -11.1 20 20 Calm 30.36 1028 10 16.0934 0 0
6:53 pm 18:53 Clear 48 8.9 15 -9.4 27 27 W 6 9 30.37 1029 10 16.0934 0 0
7:53 pm 19:53 Clear 44 6.7 16 -8.9 32 32 WNW 7 11 30.37 1028 10 16.0934 0 0
8:53 pm 20:53 Clear 44 6.7 16 -8.9 32 32 WNW 6 9 30.37 1028 10 16.0934 0 0
9:53 pm 21:53 Clear 43 6.1 15 -9.4 32 32 WNW 6 9 30.37 1029 10 16.0934 0 0
10:53 pm 22:53 Clear 42 5.6 14 -10 32 32 WNW 7 11 30.38 1029 10 16.0934 0 0
11:53 pm 23:53 Clear 46 7.8 8 -13.3 21 21 NW 12 19 30.37 1029 10 16.0934 0 0

Powered by AerisWeather